Location: Gu�tanj
(46.5431°N, 14.9692°E)
Time: 14:15:35
(UTC+00:00)

Ariane Rocket - Pass Details

Date: 03 March 2021
Orbit: 759 x 771 km, 98.7° (Epoch: 19 April)

Event Time Altitude Azimuth Distance (km) Brightness Sun altitude
Exits shadow 18:42:03 33° 141° (SE) 1,279 3.7 -20.1°
Maximum altitude 18:44:17 64° 71° (ENE) 855 2.9 -20.5°
Drops below altitude 10° 18:49:20 10° 351° (N) 2,323 5.7 -21.4°
Sets 18:51:40 0° 349° (N) 3,253 6.6 -21.7°
